Retour au catalogue

STARLINK-35729

ActifCommunicationsVLEO
NORAD 66837·PAYLOAD·🇺🇸 United States

Lancé Dec 2, 2025 depuis Vandenberg Space Force Base

Loading…

Prochains Passages (prochaines 24 heures)

TLE

FraisSource: CelesTrak SupGP

Époque: Sep 15, 2026, 03:45 UTC

1 66837C 25280S   26258.15673611 -.00003487  00000+0 -29232-3 0  2582
2 66837  70.0010 216.9300 0003194 270.4306  12.5060 14.98315726    11

Suivez STARLINK-35729 en temps réel avec AllMySat

Download on the App Store